Date,TemperatureHighF,TemperatureAvgF,TemperatureLowF,DewpointHighF,DewpointAvgF,DewpointLowF,HumidityHigh,HumidityAvg,HumidityLow,PressureMaxIn,PressureMinIn,WindSpeedMaxMPH,WindSpeedAvgMPH,GustSpeedMaxMPH,PrecipitationSumIn
2013-3-1,69.8,55.1,44.2,46.0,40.7,36.0,77,60,33,30.39,30.23,2,0,5,0.00
2013-3-2,67.9,58.5,48.0,42.0,37.4,33.0,74,47,28,30.24,30.03,3,0,5,0.00
2013-3-3,55.7,52.1,46.1,46.0,43.9,41.0,85,74,60,30.04,29.97,2,0,4,0.02
2013-3-4,62.3,50.7,40.6,45.0,41.0,35.0,86,71,41,30.08,29.99,3,0,7,0.00
2013-3-5,54.5,48.4,43.8,43.0,39.1,35.0,86,71,51,29.99,29.80,4,0,8,0.01
2013-3-6,46.1,41.4,37.2,40.0,36.5,33.0,92,83,67,30.03,29.80,9,1,14,0.01
2013-3-7,50.2,41.8,34.6,39.0,34.4,31.0,90,76,53,29.98,29.85,3,0,7,0.00
2013-3-8,56.7,45.6,34.3,38.0,33.8,29.0,88,66,37,29.98,29.79,3,0,6,0.01
2013-3-9,61.5,48.6,34.7,37.0,31.1,20.0,90,56,26,30.28,29.98,4,0,8,0.00
2013-3-10,60.7,50.1,37.9,41.0,30.8,15.0,81,50,26,30.30,30.23,3,0,6,0.00
2013-3-11,68.3,52.4,39.2,43.0,39.7,35.0,86,65,39,30.25,30.10,4,0,5,0.00
2013-3-12,70.6,56.7,43.6,47.0,43.2,38.0,84,63,40,30.13,30.05,2,0,6,0.00
2013-3-13,74.2,62.0,48.5,47.0,41.3,36.0,80,50,26,30.13,30.06,3,0,5,0.00
2013-3-14,73.7,63.1,53.2,48.0,40.5,30.0,66,45,27,30.09,30.04,3,0,7,0.00
2013-3-15,71.8,58.8,47.7,46.0,41.6,37.0,72,55,28,30.05,29.98,2,0,5,0.00
2013-3-16,69.3,56.8,46.1,47.0,36.6,25.0,73,50,20,30.03,29.96,3,0,7,0.00
2013-3-17,64.2,52.4,40.2,40.0,34.3,29.0,77,52,32,30.05,29.99,4,0,6,0.07
2013-3-18,66.8,54.1,42.8,39.0,33.6,25.0,69,48,23,30.06,30.00,2,0,5,0.00
2013-3-19,63.9,54.5,46.7,49.0,40.4,33.0,91,62,34,30.08,30.00,3,0,7,0.22
2013-3-20,51.4,49.2,47.0,49.0,46.9,45.0,94,91,88,30.08,30.02,4,0,11,1.16
2013-3-21,58.3,50.3,43.6,48.0,43.6,33.0,93,79,48,30.07,29.97,2,0,8,0.00
2013-3-22,59.0,47.9,35.6,40.0,24.4,11.0,83,43,15,30.04,29.96,4,0,9,0.00
2013-3-23,61.2,49.5,37.3,34.0,25.7,13.0,64,41,22,30.08,30.02,4,0,7,0.00
2013-3-24,67.4,53.2,41.2,39.0,33.1,29.0,70,49,27,30.06,29.94,3,0,5,0.00
2013-3-25,66.1,54.8,42.8,42.0,38.2,34.0,78,56,33,29.95,29.85,4,0,7,0.00
2013-3-26,64.8,53.9,44.2,44.0,40.1,38.0,82,61,39,29.92,29.86,4,0,7,0.00
2013-3-27,65.5,55.2,46.1,48.0,42.5,39.0,80,64,42,29.97,29.88,6,0,8,0.00
2013-3-28,59.0,53.1,49.5,51.0,45.2,43.0,84,75,62,30.07,29.96,2,0,4,0.02
2013-3-29,72.8,60.2,46.1,46.0,41.1,37.0,83,52,29,30.07,30.00,3,0,8,0.00
2013-3-30,71.6,60.9,50.4,49.0,44.8,42.0,81,57,34,30.01,29.92,3,0,7,0.01
2013-3-31,58.9,52.1,47.4,50.0,46.2,42.0,93,81,55,30.03,29.94,3,0,6,0.82